Time,TemperatureF,DewpointF,PressureIn,WindDirection,WindDirectionDegrees,WindSpeedMPH,WindSpeedGustMPH,Humidity,HourlyPrecipIn,Conditions,Clouds,dailyrainin,SolarRadiationWatts/m^2,SoftwareType,DateUTC
2013-04-23 00:04:00,42.1,31.0,30.42,NNE,22,0.0,-999.0,65,-99.99,,,0.00,0,weatherlink.com 1.10,2013-04-23 07:04:00,
2013-04-23 00:19:00,41.8,31.0,30.42,NNE,22,0.0,-999.0,65,-99.99,,,0.00,0,weatherlink.com 1.10,2013-04-23 07:19:00,
2013-04-23 00:34:00,41.2,30.0,30.42,NNE,22,0.0,-999.0,65,-99.99,,,0.00,0,weatherlink.com 1.10,2013-04-23 07:34:00,
2013-04-23 00:49:00,40.9,31.0,30.42,NNE,22,1.0,-999.0,68,-99.99,,,0.00,0,weatherlink.com 1.10,2013-04-23 07:49:00,
2013-04-23 01:04:00,40.5,31.0,30.42,NNE,22,0.0,-999.0,69,-99.99,,,0.00,0,weatherlink.com 1.10,2013-04-23 08:04:00,
2013-04-23 01:19:00,40.2,31.0,30.42,NNE,22,1.0,-999.0,70,-99.99,,,0.00,0,weatherlink.com 1.10,2013-04-23 08:19:00,
2013-04-23 01:34:00,39.6,31.0,30.42,NNE,22,0.0,-999.0,71,-99.99,,,0.00,0,weatherlink.com 1.10,2013-04-23 08:34:00,
2013-04-23 01:49:00,39.5,32.0,30.41,NNE,22,0.0,-999.0,74,-99.99,,,0.00,0,weatherlink.com 1.10,2013-04-23 08:49:00,
2013-04-23 02:04:00,39.1,31.0,30.41,NNE,22,0.0,-999.0,74,-99.99,,,0.00,0,weatherlink.com 1.10,2013-04-23 09:04:00,
2013-04-23 02:19:00,38.6,31.0,30.41,NNE,22,0.0,-999.0,74,-99.99,,,0.00,0,weatherlink.com 1.10,2013-04-23 09:19:00,
2013-04-23 02:34:00,38.3,31.0,30.40,NNE,22,0.0,-999.0,75,-99.99,,,0.00,0,weatherlink.com 1.10,2013-04-23 09:34:00,
2013-04-23 02:49:00,38.0,31.0,30.40,NNE,22,0.0,-999.0,77,-99.99,,,0.00,0,weatherlink.com 1.10,2013-04-23 09:49:00,
2013-04-23 03:04:00,37.6,31.0,30.40,NNE,22,0.0,-999.0,77,-99.99,,,0.00,0,weatherlink.com 1.10,2013-04-23 10:04:00,
2013-04-23 03:19:00,37.2,31.0,30.39,NNE,22,0.0,-999.0,77,-99.99,,,0.00,0,weatherlink.com 1.10,2013-04-23 10:19:00,
2013-04-23 03:34:00,36.8,30.0,30.39,NNE,22,0.0,-999.0,77,-99.99,,,0.00,0,weatherlink.com 1.10,2013-04-23 10:34:00,
2013-04-23 03:49:00,36.3,30.0,30.39,NNE,22,0.0,-999.0,78,-99.99,,,0.00,0,weatherlink.com 1.10,2013-04-23 10:49:00,
2013-04-23 04:04:00,35.9,30.0,30.39,NNE,22,0.0,-999.0,78,-99.99,,,0.00,0,weatherlink.com 1.10,2013-04-23 11:04:00,
2013-04-23 04:19:00,35.6,30.0,30.39,NNE,22,0.0,-999.0,79,-99.99,,,0.00,0,weatherlink.com 1.10,2013-04-23 11:19:00,
2013-04-23 04:34:00,35.5,30.0,30.39,NNE,22,0.0,-999.0,80,-99.99,,,0.00,0,weatherlink.com 1.10,2013-04-23 11:34:00,
2013-04-23 04:49:00,35.2,30.0,30.39,NNE,22,0.0,-999.0,80,-99.99,,,0.00,0,weatherlink.com 1.10,2013-04-23 11:49:00,
2013-04-23 05:04:00,34.9,30.0,30.39,NNE,22,0.0,-999.0,81,-99.99,,,0.00,0,weatherlink.com 1.10,2013-04-23 12:04:00,
2013-04-23 05:19:00,34.9,30.0,30.39,NNE,22,0.0,-999.0,82,-99.99,,,0.00,0,weatherlink.com 1.10,2013-04-23 12:19:00,
2013-04-23 05:34:00,34.9,30.0,30.39,NNE,22,0.0,-999.0,83,-99.99,,,0.00,0,weatherlink.com 1.10,2013-04-23 12:34:00,
2013-04-23 05:50:00,34.7,30.0,30.38,NNE,22,0.0,-999.0,83,-99.99,,,0.00,0,weatherlink.com 1.10,2013-04-23 12:50:00,
2013-04-23 06:04:00,34.4,30.0,30.38,NNE,22,0.0,-999.0,83,-99.99,,,0.00,0,weatherlink.com 1.10,2013-04-23 13:04:00,
2013-04-23 06:19:00,34.1,30.0,30.37,NNE,22,0.0,-999.0,83,-99.99,,,0.00,14,weatherlink.com 1.10,2013-04-23 13:19:00,
2013-04-23 06:34:00,34.0,30.0,30.37,NNE,22,0.0,-999.0,84,-99.99,,,0.00,21,weatherlink.com 1.10,2013-04-23 13:34:00,
2013-04-23 06:49:00,34.1,30.0,30.37,NNE,22,0.0,-999.0,85,-99.99,,,0.00,39,weatherlink.com 1.10,2013-04-23 13:49:00,
2013-04-23 07:04:00,34.9,31.0,30.36,NNE,22,0.0,-999.0,87,-99.99,,,0.00,60,weatherlink.com 1.10,2013-04-23 14:04:00,
2013-04-23 07:19:00,35.8,33.0,30.36,NE,49,0.0,-999.0,88,-99.99,,,0.00,56,weatherlink.com 1.10,2013-04-23 14:19:00,
2013-04-23 07:34:00,36.8,34.0,30.36,ESE,119,1.0,-999.0,89,-99.99,,,0.00,77,weatherlink.com 1.10,2013-04-23 14:34:00,
2013-04-23 07:49:00,37.6,35.0,30.36,ESE,120,0.0,-999.0,89,-99.99,,,0.00,98,weatherlink.com 1.10,2013-04-23 14:49:00,
2013-04-23 08:04:00,38.8,36.0,30.35,SSW,207,0.0,-999.0,89,-99.99,,,0.00,209,weatherlink.com 1.10,2013-04-23 15:04:00,
2013-04-23 08:19:00,39.8,37.0,30.35,West,281,2.0,-999.0,88,-99.99,,,0.00,304,weatherlink.com 1.10,2013-04-23 15:19:00,
2013-04-23 08:34:00,42.6,38.0,30.34,West,262,2.0,-999.0,83,-99.99,,,0.00,396,weatherlink.com 1.10,2013-04-23 15:34:00,
2013-04-23 08:49:00,44.6,36.0,30.34,WSW,246,0.0,-999.0,73,-99.99,,,0.00,367,weatherlink.com 1.10,2013-04-23 15:49:00,
2013-04-23 09:04:00,46.4,37.0,30.34,WSW,243,1.0,-999.0,71,-99.99,,,0.00,397,weatherlink.com 1.10,2013-04-23 16:04:00,
2013-04-23 09:19:00,47.3,36.0,30.34,SW,220,1.0,-999.0,64,-99.99,,,0.00,504,weatherlink.com 1.10,2013-04-23 16:19:00,
2013-04-23 09:34:00,48.8,35.0,30.33,SW,216,0.0,-999.0,59,-99.99,,,0.00,534,weatherlink.com 1.10,2013-04-23 16:34:00,
2013-04-23 09:49:00,51.0,36.0,30.33,WSW,254,5.0,-999.0,57,-99.99,,,0.00,610,weatherlink.com 1.10,2013-04-23 16:49:00,
2013-04-23 10:04:00,49.6,35.0,30.33,NW,324,3.0,-999.0,57,-99.99,,,0.00,390,weatherlink.com 1.10,2013-04-23 17:04:00,
2013-04-23 10:19:00,51.1,37.0,30.33,NW,316,2.0,-999.0,58,-99.99,,,0.00,250,weatherlink.com 1.10,2013-04-23 17:19:00,
2013-04-23 10:34:00,50.4,36.0,30.32,West,275,0.0,-999.0,59,-99.99,,,0.00,232,weatherlink.com 1.10,2013-04-23 17:34:00,
2013-04-23 10:49:00,50.7,35.0,30.32,WNW,290,1.0,-999.0,55,-99.99,,,0.00,355,weatherlink.com 1.10,2013-04-23 17:49:00,
2013-04-23 11:04:00,52.3,37.0,30.34,NW,326,2.0,-999.0,57,-99.99,,,0.00,492,weatherlink.com 1.10,2013-04-23 18:04:00,
2013-04-23 11:19:00,54.4,32.0,30.34,SW,232,2.0,-999.0,42,-99.99,,,0.00,752,weatherlink.com 1.10,2013-04-23 18:19:00,
2013-04-23 11:34:00,54.7,32.0,30.34,SW,235,1.0,-999.0,43,-99.99,,,0.00,856,weatherlink.com 1.10,2013-04-23 18:34:00,
2013-04-23 11:49:00,55.1,34.0,30.33,SW,216,3.0,-999.0,46,-99.99,,,0.00,445,weatherlink.com 1.10,2013-04-23 18:49:00,
2013-04-23 12:04:00,55.1,34.0,30.32,SSW,213,2.0,-999.0,45,-99.99,,,0.00,459,weatherlink.com 1.10,2013-04-23 19:04:00,
2013-04-23 12:19:00,55.4,32.0,30.31,SW,214,2.0,-999.0,42,-99.99,,,0.00,541,weatherlink.com 1.10,2013-04-23 19:19:00,
2013-04-23 12:34:00,56.3,33.0,30.31,NW,314,1.0,-999.0,42,-99.99,,,0.00,610,weatherlink.com 1.10,2013-04-23 19:34:00,
2013-04-23 12:49:00,56.7,31.0,30.31,West,280,2.0,-999.0,38,-99.99,,,0.00,506,weatherlink.com 1.10,2013-04-23 19:49:00,
2013-04-23 13:05:00,57.5,29.0,30.31,SSW,193,0.0,-999.0,34,-99.99,,,0.00,557,weatherlink.com 1.10,2013-04-23 20:05:00,
2013-04-23 13:20:00,58.1,30.0,30.30,NW,319,1.0,-999.0,34,-99.99,,,0.00,594,weatherlink.com 1.10,2013-04-23 20:20:00,
2013-04-23 13:35:00,59.9,30.0,30.30,WNW,291,3.0,-999.0,32,-99.99,,,0.00,622,weatherlink.com 1.10,2013-04-23 20:35:00,
2013-04-23 13:50:00,61.2,33.0,30.29,NNW,345,3.0,-999.0,35,-99.99,,,0.00,888,weatherlink.com 1.10,2013-04-23 20:50:00,
2013-04-23 14:05:00,62.0,35.0,30.29,NNW,346,1.0,-999.0,37,-99.99,,,0.00,863,weatherlink.com 1.10,2013-04-23 21:05:00,
2013-04-23 14:20:00,62.4,34.0,30.28,WNW,295,1.0,-999.0,34,-99.99,,,0.00,856,weatherlink.com 1.10,2013-04-23 21:20:00,
2013-04-23 14:35:00,62.9,33.0,30.28,ENE,74,2.0,-999.0,33,-99.99,,,0.00,840,weatherlink.com 1.10,2013-04-23 21:35:00,
2013-04-23 14:50:00,63.4,34.0,30.29,NNW,333,2.0,-999.0,33,-99.99,,,0.00,821,weatherlink.com 1.10,2013-04-23 21:50:00,
2013-04-23 15:05:00,63.1,29.0,30.28,NNW,336,5.0,-999.0,28,-99.99,,,0.00,796,weatherlink.com 1.10,2013-04-23 22:05:00,
2013-04-23 15:20:00,62.4,30.0,30.27,West,263,4.0,-999.0,29,-99.99,,,0.00,770,weatherlink.com 1.10,2013-04-23 22:20:00,
2013-04-23 15:35:00,63.2,29.0,30.27,West,259,6.0,-999.0,27,-99.99,,,0.00,737,weatherlink.com 1.10,2013-04-23 22:35:00,
2013-04-23 15:50:00,62.7,28.0,30.27,WSW,246,3.0,-999.0,27,-99.99,,,0.00,705,weatherlink.com 1.10,2013-04-23 22:50:00,
2013-04-23 16:05:00,62.9,28.0,30.26,WSW,238,5.0,-999.0,27,-99.99,,,0.00,671,weatherlink.com 1.10,2013-04-23 23:05:00,
2013-04-23 16:20:00,63.1,28.0,30.26,NNW,340,2.0,-999.0,27,-99.99,,,0.00,633,weatherlink.com 1.10,2013-04-23 23:20:00,
2013-04-23 16:35:00,62.9,30.0,30.25,North,355,2.0,-999.0,29,-99.99,,,0.00,594,weatherlink.com 1.10,2013-04-23 23:35:00,
2013-04-23 16:50:00,63.1,33.0,30.24,North,10,0.0,-999.0,32,-99.99,,,0.00,552,weatherlink.com 1.10,2013-04-23 23:50:00,
2013-04-23 17:05:00,62.3,30.0,30.24,NW,315,3.0,-999.0,30,-99.99,,,0.00,508,weatherlink.com 1.10,2013-04-24 00:05:00,
2013-04-23 17:20:00,61.8,27.0,30.24,NW,312,2.0,-999.0,27,-99.99,,,0.00,466,weatherlink.com 1.10,2013-04-24 00:20:00,
2013-04-23 17:35:00,61.0,29.0,30.24,WNW,287,2.0,-999.0,30,-99.99,,,0.00,417,weatherlink.com 1.10,2013-04-24 00:35:00,
2013-04-23 17:50:00,60.4,29.0,30.25,NW,314,2.0,-999.0,31,-99.99,,,0.00,371,weatherlink.com 1.10,2013-04-24 00:50:00,
2013-04-23 18:05:00,59.8,29.0,30.25,NW,317,1.0,-999.0,31,-99.99,,,0.00,318,weatherlink.com 1.10,2013-04-24 01:05:00,
2013-04-23 18:20:00,59.5,29.0,30.24,NW,304,2.0,-999.0,31,-99.99,,,0.00,93,weatherlink.com 1.10,2013-04-24 01:20:00,
2013-04-23 18:35:00,58.9,30.0,30.25,NNE,18,0.0,-999.0,34,-99.99,,,0.00,44,weatherlink.com 1.10,2013-04-24 01:35:00,
2013-04-23 18:50:00,58.4,31.0,30.25,North,10,2.0,-999.0,36,-99.99,,,0.00,39,weatherlink.com 1.10,2013-04-24 01:50:00,
2013-04-23 19:05:00,58.0,30.0,30.25,NE,40,2.0,-999.0,35,-99.99,,,0.00,35,weatherlink.com 1.10,2013-04-24 02:05:00,
2013-04-23 19:20:00,57.0,32.0,30.25,NNE,32,0.0,-999.0,39,-99.99,,,0.00,28,weatherlink.com 1.10,2013-04-24 02:20:00,
2013-04-23 19:35:00,56.2,31.0,30.25,NE,43,5.0,-999.0,38,-99.99,,,0.00,23,weatherlink.com 1.10,2013-04-24 02:35:00,
2013-04-23 19:50:00,55.4,32.0,30.25,NE,38,1.0,-999.0,41,-99.99,,,0.00,14,weatherlink.com 1.10,2013-04-24 02:50:00,
2013-04-23 20:05:00,53.8,33.0,30.25,ENE,60,3.0,-999.0,45,-99.99,,,0.00,7,weatherlink.com 1.10,2013-04-24 03:05:00,
2013-04-23 20:20:00,52.8,33.0,30.26,NE,38,0.0,-999.0,48,-99.99,,,0.00,0,weatherlink.com 1.10,2013-04-24 03:20:00,
2013-04-23 20:35:00,51.1,35.0,30.26,NE,38,0.0,-999.0,54,-99.99,,,0.00,0,weatherlink.com 1.10,2013-04-24 03:35:00,
2013-04-23 20:50:00,49.5,35.0,30.27,NE,38,0.0,-999.0,57,-99.99,,,0.00,0,weatherlink.com 1.10,2013-04-24 03:50:00,
2013-04-23 21:05:00,48.9,36.0,30.27,NE,38,0.0,-999.0,61,-99.99,,,0.00,0,weatherlink.com 1.10,2013-04-24 04:05:00,
2013-04-23 21:20:00,48.6,38.0,30.28,NE,38,0.0,-999.0,66,-99.99,,,0.00,0,weatherlink.com 1.10,2013-04-24 04:20:00,
2013-04-23 21:35:00,47.9,38.0,30.28,NE,38,0.0,-999.0,69,-99.99,,,0.00,0,weatherlink.com 1.10,2013-04-24 04:35:00,
2013-04-23 21:50:00,47.3,38.0,30.29,NE,38,0.0,-999.0,71,-99.99,,,0.00,0,weatherlink.com 1.10,2013-04-24 04:50:00,
2013-04-23 22:05:00,46.5,38.0,30.29,NE,38,0.0,-999.0,71,-99.99,,,0.00,0,weatherlink.com 1.10,2013-04-24 05:05:00,
2013-04-23 22:20:00,46.0,37.0,30.29,NE,38,0.0,-999.0,72,-99.99,,,0.00,0,weatherlink.com 1.10,2013-04-24 05:20:00,
2013-04-23 22:35:00,46.0,38.0,30.29,NE,50,2.0,-999.0,73,-99.99,,,0.00,0,weatherlink.com 1.10,2013-04-24 05:35:00,
2013-04-23 22:50:00,46.0,38.0,30.30,NE,51,0.0,-999.0,73,-99.99,,,0.00,0,weatherlink.com 1.10,2013-04-24 05:50:00,
2013-04-23 23:05:00,45.1,38.0,30.30,NE,52,0.0,-999.0,75,-99.99,,,0.00,0,weatherlink.com 1.10,2013-04-24 06:05:00,
2013-04-23 23:20:00,44.5,37.0,30.29,NE,52,1.0,-999.0,75,-99.99,,,0.00,0,weatherlink.com 1.10,2013-04-24 06:20:00,
2013-04-23 23:35:00,44.3,37.0,30.30,NE,52,0.0,-999.0,76,-99.99,,,0.00,0,weatherlink.com 1.10,2013-04-24 06:35:00,
2013-04-23 23:50:00,44.3,37.0,30.30,NE,52,0.0,-999.0,76,-99.99,,,0.00,0,weatherlink.com 1.10,2013-04-24 06:50:00,